Location: Staunton
(38.1490°N, 79.0720°W)
Time: 14:25:41
(UTC-04:00)

ISS - Pass Details

Date: 22 May 2017
Orbit: 402 x 408 km, 51.6° (Epoch: 29 May)

Event Time Altitude Azimuth Distance (km) Brightness Sun altitude
Rises 03:52:53 0° 320° (NW) 2,327 0.1 -20.4°
Reaches altitude 10° 03:55:53 10° 349° (N) 1,463 -0.5 -20.0°
Maximum altitude 03:57:30 13° 19° (NNE) 1,292 -0.3 -19.8°
Drops below altitude 10° 03:59:07 10° 49° (NE) 1,459 0.2 -19.6°
Sets 04:02:05 0° 79° (E) 2,315 0.9 -19.2°
